Palacios, TX

8:22 AM CDT on May 23, 2018 (GMT -0500)
Palacios Municipal

Weather History for KPSX - November, 2013

Change the Weather History Date:

Thursday, November 7, 2013

  Actual Average Record
Temperature  
Mean Temperature 57 °F -  
Max Temperature 63 °F 74 °F 87 °F (1945)
Min Temperature 51 °F 56 °F 30 °F (1959)
Degree Days  
Heating Degree Days 8    
Growing Degree Days 7 (Base 50)    
Moisture  
Dew Point 45 °F    
Average Humidity 66    
Maximum Humidity 75    
Minimum Humidity 48    
Precipitation  
Precipitation 0.00 in - - ()
Sea Level Pressure  
Sea Level Pressure 30.32 in    
Wind  
Wind Speed 17 mph (North)    
Max Wind Speed 22 mph    
Max Gust Speed 32 mph    
Visibility 10 miles    
Events      
Averages and records for this station are not official NWS values.
T = Trace of Precipitation, MM = Missing Value Source: NWS Daily Summary

Daily Weather History Graph

Daily Weather History Graph

Search for Another Location

Airport or City:

Astronomy

Nov. 07, 2013 Rise Set
Actual Time 6:41 AM CST 5:35 PM CST
Civil Twilight 6:17 AM CST 5:59 PM CST
Nautical Twilight 5:48 AM CST 6:28 PM CST
Astronomical Twilight 5:21 AM CST 6:55 PM CST
Moon 10:47 AM CST (11/7) 9:50 PM CST (11/7)
Length of Visible Light 11h 42m
Length of Day
10h 53m
Waxing Crescent, 23% of the Moon is Illuminated
Nov 7
Waxing Crescent
Nov 9
First Quarter
Nov 17
Full
Nov 25
Last Quarter
Dec 2
New

Hourly Weather History & Observations

Time (CST) Temp. Dew Point Humidity Pressure Visibility Wind Dir Wind Speed Gust Speed Precip Events Conditions
12:53 AM 55.9 °F 48.0 °F 75% 30.24 in 10.0 mi North 21.9 mph - N/A   Clear
1:53 AM 55.0 °F 46.9 °F 74% 30.24 in 10.0 mi North 19.6 mph 25.3 mph N/A   Clear
2:53 AM 54.0 °F 45.0 °F 72% 30.25 in 10.0 mi North 19.6 mph - N/A   Clear
3:53 AM 53.1 °F 44.1 °F 71% 30.26 in 10.0 mi North 19.6 mph 25.3 mph N/A   Clear
4:53 AM 52.0 °F 43.0 °F 71% 30.28 in 10.0 mi North 17.3 mph 32.2 mph N/A   Clear
5:53 AM 51.1 °F 42.1 °F 71% 30.30 in 10.0 mi North 15.0 mph - N/A   Clear
6:53 AM 51.1 °F 41.0 °F 68% 30.33 in 10.0 mi North 16.1 mph - N/A   Clear
7:53 AM 51.1 °F 41.0 °F 68% 30.36 in 10.0 mi North 18.4 mph - N/A   Clear
8:53 AM 52.0 °F 41.0 °F 66% 30.37 in 10.0 mi North 17.3 mph - N/A   Clear
9:53 AM 52.0 °F 41.0 °F 66% 30.38 in 10.0 mi North 20.7 mph - N/A   Clear
10:53 AM 55.0 °F 42.1 °F 62% 30.38 in 10.0 mi North 16.1 mph - N/A   Clear
11:53 AM 57.0 °F 42.1 °F 57% 30.37 in 10.0 mi North 19.6 mph - N/A   Clear
12:53 PM 61.0 °F 44.1 °F 54% 30.34 in 10.0 mi North 13.8 mph - N/A   Clear
1:53 PM 62.1 °F 44.1 °F 52% 30.32 in 10.0 mi North 15.0 mph - N/A   Clear
2:53 PM 63.0 °F 43.0 °F 48% 30.31 in 10.0 mi North 15.0 mph 21.9 mph N/A   Clear
3:53 PM 63.0 °F 45.0 °F 52% 30.30 in 10.0 mi North 11.5 mph 24.2 mph N/A   Clear
4:53 PM 62.1 °F 46.9 °F 58% 30.32 in 10.0 mi North 5.8 mph - N/A   Clear
5:53 PM 60.1 °F 48.0 °F 64% 30.33 in 10.0 mi North 6.9 mph - N/A   Clear
6:53 PM 57.9 °F 48.9 °F 72% 30.34 in 10.0 mi West 6.9 mph - N/A   Clear
7:53 PM 57.9 °F 48.0 °F 70% 30.35 in 10.0 mi NNW 9.2 mph - N/A   Clear
8:53 PM 55.9 °F 48.0 °F 75% 30.34 in 10.0 mi North 10.4 mph - N/A   Clear
9:53 PM 55.9 °F 48.0 °F 75% 30.36 in 10.0 mi North 9.2 mph - N/A   Clear
10:53 PM 55.9 °F 46.9 °F 72% 30.36 in 10.0 mi NNE 9.2 mph - N/A   Clear
11:53 PM 54.0 °F 45.0 °F 72% 30.36 in 10.0 mi North 4.6 mph - N/A   Clear